Weather History for Corsicana, TX

Change the Weather History Date:

Friday, January 25, 2013

  Actual Average (KACT) Record (KACT)
Temperature  
Mean Temperature 58 °F 48 °F  
Max Temperature 64 °F 59 °F 83 °F (1972)
Min Temperature 51 °F 36 °F 14 °F (1940)
Degree Days  
Heating Degree Days 8 17  
Month to date heating degree days 454  
Since 1 July heating degree days 1306  
Cooling Degree Days 0 0  
Month to date cooling degree days 0  
Year to date cooling degree days 0  
Growing Degree Days 8 (Base 50)    
Moisture  
Dew Point 52 °F    
Average Humidity 82    
Maximum Humidity 90    
Minimum Humidity 75    
Precipitation  
Precipitation 0.00 in 0.07 in 1.79 in (2012)
Month to date precipitation 1.66  
Year to date precipitation 1.66  
Snow  
Snow 0.00 in 0.00 in T in (1961)
Month to date snowfall 0.2  
Since 1 July snowfall 0.3  
Snow Depth -    
Sea Level Pressure  
Sea Level Pressure 30.12 in    
Wind  
Wind Speed 10 mph (NNW)    
Max Wind Speed 14 mph    
Max Gust Speed 16 mph    
Visibility 6 miles    
Events      
T = Trace of Precipitation, MM = Missing Value Source: NWS Daily Summary

Daily Weather History Graph

Daily Weather History Graph

Search for Another Location

Airport:

Trip Planner

Search our weather history database for the weather conditions in past years. The results will help you decide how hot, cold, wet, or windy it might be!

Date:

Astronomy

Jan. 25, 2013 Rise Set
Actual Time 7:23 AM CST 5:53 PM CST
Civil Twilight 6:57 AM CST 6:19 PM CST
Nautical Twilight 6:27 AM CST 6:48 PM CST
Astronomical Twilight 5:58 AM CST 7:17 PM CST
Moon 4:51 PM CST (1/25) 6:02 AM CST (1/25)
Length of Visible Light 11h 22m
Length of Day
10h 30m
Waxing Gibbous, 98% of the Moon is Illuminated
Jan 25
Waxing Gibbous
Jan 26
Full
Feb 3
Last Quarter
Feb 10
New
Feb 17
First Quarter

Hourly Weather History & Observations

Time (CST) Temp. Dew Point Humidity Pressure Visibility Wind Dir Wind Speed Gust Speed Precip Events Conditions
12:53 AM 64.0 °F 59.0 °F 84% 30.06 in 10.0 mi SSW 10.4 mph - N/A   Clear
1:53 AM 63.0 °F 57.9 °F 84% 30.06 in 10.0 mi South 10.4 mph - N/A   Clear
2:53 AM 62.1 °F 57.9 °F 86% 30.06 in 10.0 mi SSW 11.5 mph - N/A   Clear
3:26 AM 62.6 °F 57.2 °F 82% 30.07 in 10.0 mi South 12.7 mph - N/A   Mostly Cloudy
3:53 AM 62.1 °F 59.0 °F 90% 30.06 in 8.0 mi SSW 13.8 mph - N/A   Overcast
4:53 AM 62.1 °F 59.0 °F 90% 30.06 in 6.0 mi SSW 8.1 mph - N/A   Overcast
5:53 AM 63.0 °F 59.0 °F 87% 30.06 in 7.0 mi SSW 11.5 mph - N/A   Overcast
6:53 AM 64.0 °F 59.0 °F 84% 30.08 in 8.0 mi SSW 11.5 mph - N/A   Overcast
7:53 AM 64.0 °F 60.1 °F 87% 30.10 in 7.0 mi SW 8.1 mph - N/A   Overcast
8:53 AM 64.0 °F 60.1 °F 87% 30.13 in 7.0 mi SW 5.8 mph - N/A   Overcast
9:53 AM 57.9 °F 52.0 °F 81% 30.16 in 4.0 mi North 9.2 mph - N/A   Haze
10:53 AM 60.1 °F 53.1 °F 78% 30.17 in 3.0 mi North 4.6 mph - N/A   Haze
11:31 AM 60.8 °F 53.6 °F 77% 30.16 in 4.0 mi North 6.9 mph - N/A   Haze
11:53 AM 60.1 °F 52.0 °F 75% 30.15 in 4.0 mi North 8.1 mph - N/A   Haze
12:53 PM 57.0 °F 51.1 °F 81% 30.12 in 4.0 mi North 11.5 mph - N/A   Haze
1:07 PM 55.4 °F 50.0 °F 82% 30.13 in 4.0 mi NNW 10.4 mph - N/A   Haze
1:23 PM 55.4 °F 50.0 °F 82% 30.12 in 3.0 mi North 11.5 mph - N/A   Haze
1:53 PM 54.0 °F 48.9 °F 83% 30.12 in 4.0 mi North 11.5 mph - N/A   Haze
2:53 PM 54.0 °F 48.9 °F 83% 30.13 in 4.0 mi North 9.2 mph - N/A   Haze
3:53 PM 53.1 °F 46.9 °F 80% 30.13 in 5.0 mi North 11.5 mph - N/A   Haze
4:53 PM 52.0 °F 46.0 °F 80% 30.13 in 5.0 mi North 12.7 mph - N/A   Haze
5:53 PM 51.1 °F 46.0 °F 83% 30.15 in 5.0 mi North 11.5 mph - N/A   Haze
6:53 PM 51.1 °F 45.0 °F 80% 30.15 in 7.0 mi NNE 11.5 mph - N/A   Overcast
7:53 PM 51.1 °F 45.0 °F 80% 30.16 in 7.0 mi NNE 8.1 mph 16.1 mph N/A   Overcast
8:53 PM 52.0 °F 45.0 °F 77% 30.16 in 8.0 mi NE 5.8 mph - N/A   Overcast
9:53 PM 52.0 °F 45.0 °F 77% 30.17 in 8.0 mi NNE 4.6 mph - N/A   Overcast
10:53 PM 52.0 °F 45.0 °F 77% 30.18 in 9.0 mi North 6.9 mph - N/A   Overcast
11:53 PM 52.0 °F 45.0 °F 77% 30.18 in 9.0 mi NNE 3.5 mph - N/A   Overcast